This is the latest recevied weather packets stored in our database for station/object F4FEB-13. If no packets are shown the sender has not sent any weather packets the latest 1 day(s).
| Time | Temp. | Humidity | Pressure | Rain* | Wind** | Luminosity | Snow |
|---|---|---|---|---|---|---|---|
| 1777954159 | 10° C | 97% | 1010.3 hPa | 0.51 mm | 0.45 m/s, 203° | - | - |
| 1777953859 | 10° C | 97% | 1010.3 hPa | 0.25 mm | 0.45 m/s, 251° | - | - |
| 1777953562 | 10° C | 97% | 1010.3 hPa | 0.25 mm | 0.45 m/s, 244° | - | - |
| 1777953559 | 10° C | 97% | 1010.3 hPa | 0.25 mm | 0.45 m/s, 244° | - | - |
| 1777953259 | 10° C | 96% | 1010.3 hPa | 0.25 mm | 0.89 m/s, 236° | - | - |
| 1777952959 | 10° C | 96% | 1010.3 hPa | 0.25 mm | 0.89 m/s, 251° | - | - |
| 1777952659 | 10° C | 96% | 1010.3 hPa | 0.25 mm | 0.45 m/s, 270° | - | - |
| 1777952359 | 10° C | 96% | 1010.3 hPa | 0 mm | 0.89 m/s, 255° | - | - |
| 1777952059 | 10° C | 95% | 1010.3 hPa | 0 mm | 0.89 m/s, 225° | - | - |
| 1777951759 | 10° C | 95% | 1010.2 hPa | 0 mm | 3.58 m/s, 246° | - | - |
| 1777951459 | 10° C | 95% | 1010.2 hPa | 0 mm | 1.34 m/s, 233° | - | - |
| 1777951159 | 10° C | 95% | 1010.3 hPa | 0 mm | 1.79 m/s, 216° | - | - |
| 1777950859 | 10° C | 96% | 1010.3 hPa | 0 mm | 2.24 m/s, 292° | - | - |
| 1777950559 | 10° C | 96% | 1010.3 hPa | 0 mm | 1.79 m/s, 247° | - | - |
| 1777950259 | 10° C | 97% | 1010.4 hPa | 0 mm | 1.34 m/s, 248° | - | - |
| 1777949959 | 10° C | 97% | 1010.5 hPa | 0 mm | 1.79 m/s, 254° | - | - |
| 1777949659 | 10° C | 98% | 1010.5 hPa | 0 mm | 1.34 m/s, 260° | - | - |
| 1777949360 | 10° C | 98% | 1010.5 hPa | 0 mm | 1.34 m/s, 254° | - | - |
| 1777949060 | 10° C | 97% | 1010.5 hPa | 0 mm | 0.89 m/s, 270° | - | - |
| 1777948760 | 10° C | 96% | 1010.5 hPa | 0 mm | 0.89 m/s, 254° | - | - |
| 1777948460 | 10.56° C | 96% | 1010.6 hPa | 0 mm | 1.79 m/s, 260° | - | - |
| 1777948160 | 10.56° C | 95% | 1010.5 hPa | 0 mm | 0 m/s | - | - |
| 1777947860 | 10.56° C | 93% | 1010.6 hPa | 0 mm | 1.79 m/s, 253° | - | - |
* Rain latest hour (hover to see other rain measurements)
** Current wind speed in m/s (hover to see current wind gust speed)